Regional Weather Roundup
Issued by NWS

Home | Current Version | Previous Version | Graphics & Text | Print | Product List | Glossary On
Versions: 1 2 3 4 5 6 7 8 9 10 11 12 13 14 15 16 17 18 19 20 21 22 23 24 25 26 27 28 29 30 31 32 33 34 35 36 37 38 39 40 41 42 43 44 45 46 47 48 49 50
000
ASUS43 KLSX 271707
RWRMO

WEATHER SUMMARY FOR MISSOURI
NATIONAL WEATHER SERVICE SPRINGFIELD MO
1200 PM CDT MON MAR 27 2017

NOTE: "FAIR" INDICATES FEW OR NO CLOUDS BELOW 12,000 FEET WITH NO
       SIGNIFICANT WEATHER AND/OR OBSTRUCTIONS TO VISIBILITY.
       CURRENT SKY AND/OR WEATHER CONDITIONS ARE NOT AVAILABLE FOR
       CHILLICOTHE AND FARMINGTON.

MOZ001>031-035>038-043-044-053-054-271800-
...NORTHERN AND WESTERN MISSOURI...

CITY           SKY/WX    TMP DP  RH WIND       PRES   REMARKS
KANSAS CTY INT LGT RAIN  48  47  96 N10       29.93S FOG
KANSAS C DTWN  LGT RAIN  50  47  89 N7        29.92R FOG
LEE`S SUMMIT   CLOUDY    49  48  97 N13       29.91R
ST JOSEPH      CLOUDY    48  46  93 N15G22    29.96R
CHILLICOTHE      N/A     49  47  93 NE10      29.93S
KIRKSVILLE     CLOUDY    49  32  52 NE8       29.92S

$$
MOZ066>068-077>081-088>096-101>105-271800-
...SOUTHWEST MISSOURI...

CITY           SKY/WX    TMP DP  RH WIND       PRES   REMARKS
SPRINGFIELD    CLOUDY    56  54  93 W6        29.85S
JOPLIN         CLOUDY    54  53  97 NW12      29.89R
BRANSON        CLOUDY    57  57 100 CALM      29.85R

$$
MOZ032>034-039>042-045>050-055>058-069>072-271800-
...CENTRAL MISSOURI...

CITY           SKY/WX    TMP DP  RH WIND       PRES   REMARKS
COLUMBIA       LGT RAIN  51  51 100 NE10      29.85S FOG
JEFFERSON CITY CLOUDY    56  53  90 E5        29.84S
ROLLA          CLOUDY    56  55  97 SE5       29.83S
SEDALIA        CLOUDY    51  49  92 N10       29.88S
WHITEMAN AFB   CLOUDY    49  49 100 N14       29.86S
WARRENSBURG    CLOUDY    50  46  87 N10       29.88F
OSAGE BEACH    CLOUDY   N/A N/A N/A W7        29.84S

$$
MOZ051-052-059>065-271800-
...EAST CENTRAL MISSOURI...

CITY           SKY/WX    TMP DP  RH WIND       PRES   REMARKS
ST LOUIS INTL  LGT RAIN  56  53  90 N6        29.85F FOG
SPIRIT OF STL  LGT RAIN  55  54  96 NE8       29.84F FOG
ST CHARLES     CLOUDY    54  53  97 N9        29.84F

$$
MOZ072>076-082>087-097>100-106>115-271800-
...SOUTH CENTRAL AND SOUTHEAST MISSOURI...

CITY           SKY/WX    TMP DP  RH WIND       PRES   REMARKS
CAPE GIRARDEAU CLOUDY    62  54  74 SW10      29.86F
FARMINGTON     LGT RAIN  59  54  83 SW8       29.84S
POPLAR BLUFF   LGT RAIN  58  57  97 SE13G21   29.81F
WEST PLAINS    CLOUDY    58  56  93 S6        29.84R

$$



USA.gov is the U.S. government's official web portal to all federal, state and local government web resources and services.